TimeCDT,TemperatureF,Dew PointF,Humidity,Sea Level PressureIn,VisibilityMPH,Wind Direction,Wind SpeedMPH,Gust SpeedMPH,PrecipitationIn,Events,Conditions,WindDirDegrees,DateUTC
12:15 AM,26.6,21.2,80,30.14,10.0,WNW,5.8,-,N/A,,Clear,290,2013-04-20 05:15:00
12:35 AM,24.8,21.2,86,30.14,10.0,WNW,8.1,-,N/A,,Clear,300,2013-04-20 05:35:00
12:55 AM,26.6,21.2,80,30.14,10.0,NW,6.9,-,N/A,,Clear,310,2013-04-20 05:55:00
1:35 AM,26.6,21.2,80,30.16,10.0,Calm,Calm,-,N/A,,Clear,0,2013-04-20 06:35:00
1:55 AM,26.6,21.2,80,30.16,10.0,Calm,Calm,-,N/A,,Clear,0,2013-04-20 06:55:00
2:15 AM,23.0,19.4,86,30.16,10.0,NNW,3.5,-,N/A,,Clear,340,2013-04-20 07:15:00
2:35 AM,24.8,21.2,86,30.16,10.0,Calm,Calm,-,N/A,,Clear,0,2013-04-20 07:35:00
2:55 AM,26.6,21.2,80,30.17,10.0,Calm,Calm,-,N/A,,Clear,0,2013-04-20 07:55:00
3:15 AM,21.2,19.4,93,30.17,10.0,NW,3.5,-,N/A,,Clear,320,2013-04-20 08:15:00
3:35 AM,21.2,19.4,93,30.18,10.0,Calm,Calm,-,N/A,,Clear,0,2013-04-20 08:35:00
3:55 AM,21.2,19.4,93,30.18,10.0,Calm,Calm,-,N/A,,Clear,0,2013-04-20 08:55:00
4:15 AM,21.2,21.2,100,30.18,10.0,Calm,Calm,-,N/A,,Clear,0,2013-04-20 09:15:00
4:35 AM,21.2,19.4,93,30.19,10.0,Calm,Calm,-,N/A,,Clear,0,2013-04-20 09:35:00
4:55 AM,21.2,19.4,93,30.19,10.0,Calm,Calm,-,N/A,,Clear,0,2013-04-20 09:55:00
5:15 AM,19.4,19.4,100,30.20,10.0,Calm,Calm,-,N/A,,Clear,0,2013-04-20 10:15:00
5:35 AM,21.2,19.4,93,30.20,10.0,NNE,3.5,-,N/A,,Clear,20,2013-04-20 10:35:00
5:55 AM,21.2,19.4,93,30.21,10.0,Calm,Calm,-,N/A,,Clear,0,2013-04-20 10:55:00
6:15 AM,19.4,19.4,100,30.21,10.0,Calm,Calm,-,N/A,,Clear,0,2013-04-20 11:15:00
6:35 AM,19.4,17.6,93,30.21,10.0,Calm,Calm,-,N/A,,Clear,0,2013-04-20 11:35:00
6:55 AM,19.4,17.6,93,30.22,10.0,Calm,Calm,-,N/A,,Clear,0,2013-04-20 11:55:00
7:15 AM,21.2,19.4,93,30.24,10.0,Calm,Calm,-,N/A,,Clear,0,2013-04-20 12:15:00
7:35 AM,21.2,21.2,100,30.25,10.0,Calm,Calm,-,N/A,,Clear,0,2013-04-20 12:35:00
7:55 AM,24.8,21.2,86,30.25,10.0,Calm,Calm,-,N/A,,Clear,0,2013-04-20 12:55:00
8:15 AM,26.6,21.2,80,30.26,10.0,Calm,Calm,-,N/A,,Clear,0,2013-04-20 13:15:00
8:35 AM,28.4,21.2,74,30.27,10.0,Calm,Calm,-,N/A,,Clear,0,2013-04-20 13:35:00
8:55 AM,28.4,21.2,74,30.28,10.0,Calm,Calm,-,N/A,,Clear,0,2013-04-20 13:55:00
9:15 AM,30.2,21.2,69,30.28,10.0,Calm,Calm,-,N/A,,Clear,0,2013-04-20 14:15:00
9:35 AM,32.0,19.4,60,30.29,10.0,ENE,3.5,-,N/A,,Scattered Clouds,70,2013-04-20 14:35:00
9:55 AM,33.8,19.4,56,30.29,10.0,ENE,4.6,-,N/A,,Scattered Clouds,60,2013-04-20 14:55:00
10:15 AM,33.8,19.4,56,30.29,10.0,Calm,Calm,-,N/A,,Scattered Clouds,0,2013-04-20 15:15:00
10:35 AM,35.6,19.4,52,30.29,10.0,East,5.8,-,N/A,,Mostly Cloudy,100,2013-04-20 15:35:00
10:55 AM,35.6,17.6,48,30.30,10.0,Calm,Calm,-,N/A,,Mostly Cloudy,0,2013-04-20 15:55:00
11:15 AM,35.6,15.8,44,30.30,10.0,ESE,3.5,-,N/A,,Mostly Cloudy,110,2013-04-20 16:15:00
11:35 AM,35.6,15.8,44,30.29,10.0,ESE,4.6,-,N/A,,Scattered Clouds,120,2013-04-20 16:35:00
11:55 AM,37.4,15.8,41,30.30,10.0,ESE,3.5,-,N/A,,Scattered Clouds,110,2013-04-20 16:55:00
12:15 PM,37.4,14.0,38,30.30,10.0,Calm,Calm,-,N/A,,Mostly Cloudy,0,2013-04-20 17:15:00
12:35 PM,39.2,15.8,39,30.29,10.0,SE,5.8,-,N/A,,Mostly Cloudy,140,2013-04-20 17:35:00
12:55 PM,39.2,14.0,36,30.28,10.0,SSE,5.8,-,N/A,,Scattered Clouds,160,2013-04-20 17:55:00
1:15 PM,39.2,12.2,33,30.27,10.0,SE,6.9,-,N/A,,Mostly Cloudy,140,2013-04-20 18:15:00
1:35 PM,42.8,14.0,31,30.26,10.0,ESE,5.8,-,N/A,,Scattered Clouds,110,2013-04-20 18:35:00
1:55 PM,42.8,14.0,31,30.26,10.0,East,10.4,-,N/A,,Mostly Cloudy,100,2013-04-20 18:55:00
2:15 PM,42.8,12.2,29,30.25,10.0,East,8.1,-,N/A,,Scattered Clouds,80,2013-04-20 19:15:00
2:35 PM,44.6,12.2,27,30.25,10.0,ESE,10.4,-,N/A,,Scattered Clouds,110,2013-04-20 19:35:00
2:55 PM,44.6,12.2,27,30.24,10.0,ESE,9.2,-,N/A,,Scattered Clouds,110,2013-04-20 19:55:00
3:15 PM,44.6,15.8,31,30.23,10.0,East,11.5,16.1,N/A,,Scattered Clouds,90,2013-04-20 20:15:00
3:35 PM,46.4,15.8,29,30.23,10.0,SE,9.2,-,N/A,,Scattered Clouds,140,2013-04-20 20:35:00
3:55 PM,46.4,14.0,27,30.22,10.0,ESE,9.2,-,N/A,,Clear,110,2013-04-20 20:55:00
4:15 PM,46.4,14.0,27,30.21,10.0,East,11.5,-,N/A,,Clear,100,2013-04-20 21:15:00
4:35 PM,46.4,15.8,29,30.21,10.0,ESE,13.8,-,N/A,,Scattered Clouds,120,2013-04-20 21:35:00
4:55 PM,46.4,15.8,29,30.21,10.0,East,10.4,18.4,N/A,,Mostly Cloudy,100,2013-04-20 21:55:00
5:15 PM,46.4,14.0,27,30.20,10.0,SE,10.4,16.1,N/A,,Scattered Clouds,130,2013-04-20 22:15:00
5:35 PM,46.4,15.8,29,30.20,10.0,ESE,12.7,-,N/A,,Scattered Clouds,120,2013-04-20 22:35:00
5:55 PM,46.4,17.6,32,30.20,10.0,SE,12.7,17.3,N/A,,Mostly Cloudy,130,2013-04-20 22:55:00
6:15 PM,46.4,17.6,32,30.20,10.0,SE,10.4,-,N/A,,Scattered Clouds,140,2013-04-20 23:15:00
6:35 PM,46.4,17.6,32,30.20,10.0,SE,11.5,-,N/A,,Scattered Clouds,130,2013-04-20 23:35:00
6:55 PM,46.4,19.4,34,30.21,10.0,SE,11.5,-,N/A,,Clear,130,2013-04-20 23:55:00
7:15 PM,44.6,17.6,34,30.20,10.0,SE,9.2,-,N/A,,Clear,130,2013-04-21 00:15:00
7:35 PM,44.6,17.6,34,30.21,10.0,SE,9.2,-,N/A,,Clear,140,2013-04-21 00:35:00
7:55 PM,44.6,19.4,37,30.21,10.0,SE,6.9,-,N/A,,Scattered Clouds,140,2013-04-21 00:55:00
8:15 PM,44.6,21.2,39,30.21,10.0,SE,9.2,-,N/A,,Scattered Clouds,130,2013-04-21 01:15:00
8:35 PM,44.6,21.2,39,30.22,10.0,SE,8.1,-,N/A,,Mostly Cloudy,130,2013-04-21 01:35:00
8:55 PM,42.8,21.2,42,30.21,10.0,SE,11.5,-,N/A,,Scattered Clouds,130,2013-04-21 01:55:00
9:15 PM,42.8,21.2,42,30.21,10.0,SE,12.7,16.1,N/A,,Scattered Clouds,130,2013-04-21 02:15:00
9:35 PM,42.8,21.2,42,30.23,10.0,SSE,10.4,-,N/A,,Clear,150,2013-04-21 02:35:00
9:55 PM,42.8,23.0,46,30.23,10.0,SE,11.5,-,N/A,,Mostly Cloudy,140,2013-04-21 02:55:00
10:15 PM,42.8,23.0,46,30.23,10.0,SE,10.4,17.3,N/A,,Mostly Cloudy,140,2013-04-21 03:15:00
10:35 PM,42.8,21.2,42,30.22,10.0,SE,12.7,-,N/A,,Mostly Cloudy,140,2013-04-21 03:35:00
10:55 PM,42.8,23.0,46,30.20,10.0,SE,12.7,-,N/A,,Mostly Cloudy,130,2013-04-21 03:55:00
11:15 PM,42.8,21.2,42,30.21,10.0,SE,8.1,-,N/A,,Mostly Cloudy,130,2013-04-21 04:15:00
11:35 PM,42.8,23.0,46,30.22,10.0,SE,9.2,-,N/A,,Overcast,140,2013-04-21 04:35:00
11:55 PM,42.8,23.0,46,30.20,10.0,SE,8.1,-,N/A,,Overcast,130,2013-04-21 04:55:00